Location: Hackberry
(29.5783°N, 96.8797°W)
Time: 03:40:41
(UTC+00:00)

Explorer 11/Cluster Stage 4 - Pass Details

Date: 14 November 2024
Orbit: 464 x 1202 km, 28.8° (Epoch: 03 December)

Event Time Altitude Azimuth Distance (km) Brightness Sun altitude
Exits shadow 11:10:07 60° 234° (SW) 693 6.0 -22.1°
Maximum altitude 11:10:48 75° 174° (S) 618 6.0 -21.9°
Drops below altitude 10° 11:14:51 10° 89° (E) 1,771 9.5 -21.1°
Sets 11:16:55 0° 87° (E) 2,592 10.7 -20.6°
